Location: Ripley
(48.3812°N, 115.4473°W)
Time: 22:39:08
(UTC+00:00)

O/OREOS (USA 219) - Pass Details

Date: 07 July 2022
Orbit: 621 x 646 km, 72.0° (Epoch: 22 May)

Event Time Altitude Azimuth Distance (km) Brightness Sun altitude
Rises 07:45:08 0° 323° (NW) 2,968 ? -19.0°
Reaches altitude 10° 07:47:45 10° 310° (NW) 2,054 ? -19.0°
Maximum altitude 07:51:28 24° 257° (WSW) 1,327 ? -19.0°
Enters shadow 07:52:23 23° 238° (WSW) 1,382 ? -19.0°
